Regional Weather Roundup
Issued by NWS

Home | Current Version | Previous Version | Text Only | Print | Product List | Glossary On
Versions: 1 2 3 4 5 6 7 8 9 10 11 12 13 14 15 16 17 18 19 20 21 22 23 24 25 26 27 28 29 30 31 32 33 34 35 36 37 38 39 40 41 42 43 44 45 46 47 48 49 50
000
ASUS43 KDMX 131206
RWRIA

WEATHER ROUNDUP FOR IOWA
NATIONAL WEATHER SERVICE DES MOINES IA
600 AM CST WED DEC 13 2017

NOTE: "FAIR" INDICATES FEW OR NO CLOUDS BELOW 12,000 FEET WITH NO
SIGNIFICANT WEATHER AND/OR OBSTRUCTIONS TO VISIBILITY.

* - THESE STATIONS ARE NOT NWS STATIONS...THUS NOT UNDER NWS
QUALITY CONTROL.  THEY ALSO DO NOT REPORT WEATHER SUCH
AS PRECIPITATION OR FOG.

IAZ001>003-012>014-020>022-031>034-043>046-131300-
   NORTHWEST IOWA

CITY           SKY/WX    TMP DP  RH WIND       PRES   REMARKS
CARROLL *      PTCLDY    41  23  48 W20       29.49F
CHEROKEE *     CLOUDY    46  30  54 NW17G35   29.52R
DENISON *      CLOUDY    46  25  42 W15G22    29.55F
LE MARS *      CLOUDY    48  30  49 NW28G43   29.56R
ORANGE CITY *  PTCLDY    46  34  61 NW26G39   29.53R
SHELDON *      CLOUDY    43  34  70 NW31G39   29.49R
SIOUX CITY     MOCLDY    51  28  41 NW32G47   29.56S
6HR MIN TEMP:  23; 6HR MAX TEMP:  51; 6HR PCP: TRACE;

SPENCER        CLOUDY    43  32  65 NW29G46   29.46R
6HR MIN TEMP:  34; 6HR MAX TEMP:  44;

STORM LAKE *   CLOUDY    45  28  53 NW26G35   29.49R
$$

IAZ055>058-069>071-079>083-090>094-131300-
   SOUTHWEST IOWA

CITY           SKY/WX    TMP DP  RH WIND       PRES   REMARKS
ATLANTIC *     CLOUDY    39  25  56 W12       29.57F WCI  32
AUDUBON *      PTCLDY    43  25  49 W8        29.53F
CLARINDA *       N/A     37  25  60 W8        29.65R WCI  31
COUNCIL BLFS * PTCLDY    46  23  39 W16G24    29.61S
CRESTON *      CLOUDY    34  23  64 W16       29.59S WCI  23
HARLAN  *      CLOUDY    41  25  52 W14       29.59F
LAMONI         CLOUDY    34  24  67 W18       29.59S WCI  23
6HR MIN TEMP:  28; 6HR MAX TEMP:  34;

RED OAK *      CLOUDY    39  25  56 W15       29.62S WCI  31
SHENANDOAH *   CLOUDY    37  25  60 W7        29.65S WCI  32
$$

IAZ047>049-059>061-072>074-084-131300-
   CENTRAL IOWA

CITY           SKY/WX    TMP DP  RH WIND       PRES   REMARKS
AMES           PTCLDY    39  25  57 W17       29.46F WCI  30
6HR MIN TEMP:  27; 6HR MAX TEMP:  39;

ANKENY *       CLOUDY    39  23  52 W15G21    29.50F WCI  31
BOONE *        PTCLDY    39  23  52 W17G23    29.45F WCI  30
CHARITON *     CLOUDY    34  25  69 SW14G21   29.55F WCI  24
DES MOINES     CLOUDY    39  23  52 W17G24    29.51F WCI  30
6HR MIN TEMP:  28; 6HR MAX TEMP:  39;

GRINNELL*      CLOUDY    33  25  73 SW16G22   29.48F WCI  22
KNOXVILLE *    CLOUDY    36  23  60 SW10G20   29.51F WCI  28
MARSHALLTOWN   CLOUDY    33  25  72 SW17      29.44F WCI  22
6HR MIN TEMP:  30; 6HR MAX TEMP:  33;

NEWTON *       CLOUDY    34  25  69 SW13      29.48F WCI  25
PELLA *        CLOUDY    37  25  62 SW14G24   29.51F WCI  28
PERRY *          N/A     39  21  48 W20       29.49F WCI  29
$$

IAZ004>006-015-016-023>025-035-036-131300-
   NORTH CENTRAL IOWA

CITY           SKY/WX    TMP DP  RH WIND       PRES   REMARKS
ALGONA *       CLOUDY    39  27  60 W16       29.40F WCI  30
CLARION *      CLOUDY    39  25  56 W18       29.40F WCI  30
ESTHERVILLE    CLOUDY    40  27  59 NW28G41   29.41S WCI  29
6HR MIN TEMP:  31; 6HR MAX TEMP:  40;

FORT DODGE *   PTCLDY    41  24  51 W13G21    29.44F
MASON CITY     CLOUDY    36  23  59 W18       29.37F WCI  26
6HR MIN TEMP:  28; 6HR MAX TEMP:  36;

FOREST CITY *    N/A     39  27  60 W15G21    29.36F WCI  31
WEBSTER CITY * CLOUDY    41  23  48 W21G28    29.41F
IOWA FALLS *     N/A     35  26  69 SW16      29.42F WCI  25
$$

IAZ007>011-017>019-026>030-037>042-050>054-066-131300-
   NORTHEAST IOWA

CITY           SKY/WX    TMP DP  RH WIND       PRES   REMARKS
CEDAR RAPIDS   PTCLDY    32  23  69 SW14      29.47F WCI  22
6HR MIN TEMP:  25; 6HR MAX TEMP:  32;

CHARLES CITY * CLOUDY    28  27  93 S9        29.37F WCI  20
CLINTON *      CLOUDY    30  21  69 S16       29.52F WCI  19
DECORAH *      CLOUDY    28  25  86 S8        29.37F WCI  20
DUBUQUE        CLOUDY    26  20  77 S20       29.44F WCI  12
6HR MIN TEMP:  21; 6HR MAX TEMP:  26;

MONTICELLO *   CLOUDY    30  21  69 S13G20    29.46F WCI  20
OELWEIN *      CLOUDY    28  27  93 S13G18    29.41F WCI  18
WATERLOO       CLOUDY    32  23  69 SW14      29.41F WCI  22
6HR MIN TEMP:  26; 6HR MAX TEMP:  32;

$$

IAZ064-065-067-068-078-131300-
   EAST CENTRAL IOWA

CITY           SKY/WX    TMP DP  RH WIND       PRES   REMARKS
DAVENPORT      CLOUDY    31  20  63 S22G29    29.53F WCI  18
6HR MIN TEMP:  26; 6HR MAX TEMP:  31;

IOWA CITY      CLOUDY    32  23  69 S7        29.52F WCI  26
6HR MIN TEMP:  27; 6HR MAX TEMP:  32;

MT. PLEASANT * CLOUDY    31  21  68 S15G23    29.54F WCI  20
MUSCATINE *    CLOUDY    32  21  64 S13G20    29.53F WCI  22
QUAD CITIES    PTCLDY    32  20  61 S12G24    29.53F WCI  23
6HR MIN TEMP:  28; 6HR MAX TEMP:  32;

$$

IAZ062-063-075>077-085>089-095>099-131300-
   SOUTHEAST IOWA

CITY           SKY/WX    TMP DP  RH WIND       PRES   REMARKS
BURLINGTON     PTCLDY    31  22  69 S17       29.57F WCI  19
6HR MIN TEMP:  26; 6HR MAX TEMP:  31;

FAIRFIELD *    PTCLDY    34  23  64 SW16G24   29.52F WCI  23
FORT MADISON * CLOUDY    30  21  69 S17       29.57F WCI  18
KEOKUK *       CLOUDY    30  21  69 S14       29.58F WCI  20
OSKALOOSA *      N/A     34  25  69 SW16      29.51F WCI  23
OTTUMWA        PTCLDY    36  24  62 SW15      29.52F WCI  27
6HR MIN TEMP:  28; 6HR MAX TEMP:  36;

WASHINGTON *   CLOUDY    32  25  74 SW15G24   29.52F WCI  22
$$

ABBREVIATIONS USED IN REMARKS
   TC - TEMPERATURES IN CELSIUS
  WCI - WIND CHILL INDEX
   HX - HEAT INDEX
  VSB - VISIBILITY
$$




USA.gov is the U.S. government's official web portal to all federal, state and local government web resources and services.